Findlay, OH

6:56 AM EST on December 07, 2019 (GMT -0500)
Findlay

Weather History for KFDY - July, 2019

Change the Weather History Date:

Friday, July 19, 2019

  Actual Average Record
Temperature  
Mean Temperature 86 °F -  
Max Temperature 95 °F 84 °F 96 °F (1977)
Min Temperature 78 °F 65 °F 53 °F (1984)
Cooling Degree Days 20    
Growing Degree Days 36 (Base 50)    
Moisture  
Dew Point 76 °F    
Average Humidity 75    
Maximum Humidity 90    
Minimum Humidity 52    
Precipitation  
Precipitation 0.00 in - - ()
Sea Level Pressure  
Sea Level Pressure 29.88 in    
Wind  
Wind Speed 11 mph (SW)    
Max Wind Speed 17 mph    
Max Gust Speed 23 mph    
Visibility 10 miles    
Events      
Averages and records for this station are not official NWS values.
T = Trace of Precipitation, MM = Missing Value Source: NWS Daily Summary

Daily Weather History Graph

Daily Weather History Graph

Search for Another Location

Airport or City:

Astronomy

Jul. 19, 2019 Rise Set
Actual Time 6:18 AM EDT 9:02 PM EDT
Civil Twilight 5:46 AM EDT 9:35 PM EDT
Nautical Twilight 5:05 AM EDT 10:15 PM EDT
Astronomical Twilight 4:19 AM EDT 11:01 PM EDT
Moon 10:59 PM EDT (7/19) 8:44 AM EDT (7/19)
Length of Visible Light 15h 48m
Length of Day
14h 44m
Waning Gibbous, 93% of the Moon is Illuminated
Jul 19
Waning Gibbous
Jul 24
Last Quarter
Jul 31
New
Aug 7
First Quarter
Aug 15
Full

Hourly Weather History & Observations

Time (EDT) Temp. Heat Index Dew Point Humidity Pressure Visibility Wind Dir Wind Speed Gust Speed Precip Events Conditions
12:53 AM 79.0 °F - 72.0 °F 79% 29.86 in 10.0 mi SSW 12.7 mph - N/A   Clear
1:53 AM 79.0 °F - 73.0 °F 82% 29.86 in 10.0 mi SSW 11.5 mph - N/A   Clear
2:53 AM 78.1 °F - 73.0 °F 84% 29.86 in 10.0 mi SSW 10.4 mph - N/A   Clear
3:53 AM 78.1 °F - 73.0 °F 84% 29.87 in 10.0 mi SSW 9.2 mph - N/A   Clear
4:53 AM 78.1 °F - 73.9 °F 87% 29.86 in 10.0 mi SSW 8.1 mph - N/A   Clear
5:53 AM 78.1 °F - 73.9 °F 87% 29.87 in 10.0 mi SSW 9.2 mph - N/A   Clear
6:53 AM 78.1 °F - 75.0 °F 90% 29.88 in 10.0 mi SW 8.1 mph - N/A   Mostly Cloudy
7:08 AM 79.0 °F - 75.0 °F 88% 29.91 in 10.0 mi SW 6.9 mph - N/A   Mostly Cloudy
7:15 AM 79.0 °F - 75.0 °F 88% 29.91 in 10.0 mi SW 8.1 mph - N/A   Overcast
7:53 AM 81.0 °F 87.3 °F 75.9 °F 85% 29.89 in 10.0 mi SW 10.4 mph - N/A   Overcast
8:53 AM 82.0 °F 89.4 °F 75.9 °F 82% 29.90 in 10.0 mi SW 10.4 mph - N/A   Overcast
9:53 AM 82.9 °F 91.8 °F 77.0 °F 82% 29.91 in 10.0 mi SW 11.5 mph - N/A   Overcast
10:31 AM 84.0 °F 93.7 °F 77.0 °F 79% 29.94 in 10.0 mi SW 9.2 mph - N/A   Overcast
10:53 AM 86.0 °F 98.3 °F 78.1 °F 77% 29.89 in 10.0 mi SW 11.5 mph - N/A   Mostly Cloudy
11:11 AM 87.1 °F 99.8 °F 78.1 °F 74% 29.92 in 10.0 mi SW 12.7 mph - N/A   Scattered Clouds
11:53 AM 90.0 °F 105.8 °F 79.0 °F 70% 29.88 in 10.0 mi SSW 15.0 mph 19.6 mph N/A   Partly Cloudy
12:53 PM 91.9 °F 108.8 °F 79.0 °F 66% 29.87 in 10.0 mi SSW 13.8 mph - N/A   Clear
1:53 PM 93.9 °F 109.9 °F 78.1 °F 60% 29.88 in 10.0 mi SSW 15.0 mph - N/A   Scattered Clouds
2:53 PM 93.0 °F 106.7 °F 77.0 °F 59% 29.87 in 10.0 mi SW 17.3 mph - N/A   Scattered Clouds
3:53 PM 93.0 °F 105.3 °F 75.9 °F 57% 29.88 in 10.0 mi SW 17.3 mph - N/A   Mostly Cloudy
4:53 PM 93.9 °F 106.9 °F 75.9 °F 56% 29.86 in 10.0 mi SW 12.7 mph 23.0 mph N/A   Partly Cloudy
5:53 PM 93.0 °F 104.6 °F 75.0 °F 56% 29.86 in 10.0 mi SW 15.0 mph - N/A   Partly Cloudy
6:53 PM 93.0 °F 101.9 °F 73.0 °F 52% 29.86 in 10.0 mi SW 11.5 mph 21.9 mph N/A   Clear
7:53 PM 89.1 °F 99.1 °F 75.0 °F 63% 29.85 in 10.0 mi SW 11.5 mph - N/A   Partly Cloudy
8:53 PM 86.0 °F 96.0 °F 75.9 °F 72% 29.86 in 10.0 mi SSW 9.2 mph - N/A   Clear
9:53 PM 84.9 °F 94.1 °F 75.9 °F 74% 29.89 in 10.0 mi South 8.1 mph - N/A   Partly Cloudy
10:53 PM 82.9 °F 90.8 °F 75.9 °F 79% 29.88 in 10.0 mi SSW 10.4 mph - N/A   Clear
11:53 PM 84.0 °F 91.9 °F 75.0 °F 74% 29.88 in 10.0 mi SW 11.5 mph - N/A   Clear